sat.trackr.live / text

‹ back to catalog

2025-313AD

NORAD 67275 · 2025-313AD

PAYLOAD ACTIVE UNKNOWN

§ Identity

Operator
Country
TBD
Launch date
2025-12-28
Launch site
VOSTO
Launch vehicle
Mass (kg)
RCS (m²)

External: N2YO · Heavens-Above · Gunter

§ Orbital elements

Epoch: 2026-05-25T03:39:28.706976Z

Period
94.60 min
Inclination
97.3913°
Eccentricity
0.0015382
Mean motion
15.22271361 rev/d
Perigee alt
488.4 km
Apogee alt
509.6 km
Semi-major
6,877.1 km
B*
2.7956e-4
RAAN
220.0728°
Arg perigee
90.1179°
Mean anomaly
270.1820°
Rev number
2,244

§ Raw data

2025-313AD1 67275U 25313AD  26145.15241559  .00006385  00000+0  27956-3 0  99942 67275  97.3913 220.0728 0015382  90.1179 270.1820 15.22271361 22440

JSON: /api/v1/satellites/67275 · /tle

For live sub-satellite position, see the globe view (requires WebGL).

§ Visibility from observer

Set your observer location to see the next 7 days of passes ≥ 10°. The values pass through the URL so the page stays shareable.

No JS? Fill the form by hand. The geolocation button needs JavaScript.